Weather History for Tallahassee, FL

Change the Weather History Date:

Monday, June 16, 2014

  Actual Average Record
Temperature  
Mean Temperature 82 °F 80 °F  
Max Temperature 95 °F 91 °F 100 °F (2009)
Min Temperature 69 °F 70 °F 55 °F (1933)
Degree Days  
Heating Degree Days 0    
Month to date heating degree days 0  
Since 1 June heating degree days 0  
Since 1 July heating degree days 1360  
Cooling Degree Days 17    
Month to date cooling degree days 256  
Year to date cooling degree days 745  
Since 1 June cooling degree days 256  
Growing Degree Days 32 (Base 50)    
Moisture  
Dew Point 68 °F    
Average Humidity 63    
Maximum Humidity 90    
Minimum Humidity 36    
Precipitation  
Precipitation 0.67 in 0.28 in 2.66 in (1987)
Month to date precipitation 2.03 3.88  
Year to date precipitation 34.12 25.54  
Sea Level Pressure  
Sea Level Pressure 30.12 in    
Wind  
Wind Speed 3 mph (NNW)    
Max Wind Speed 32 mph    
Max Gust Speed 41 mph    
Visibility 9 miles    
Events Fog , Rain , Thunderstorm    
T = Trace of Precipitation, MM = Missing Value Source: NWS Daily Summary

Daily Weather History Graph

Daily Weather History Graph

Search for Another Location

Airport:

Trip Planner

Search our weather history database for the weather conditions in past years. The results will help you decide how hot, cold, wet, or windy it might be!

Date:

Astronomy

Jun. 16, 2014 Rise Set
Actual Time 6:35 AM EDT 8:41 PM EDT
Civil Twilight 6:07 AM EDT 9:08 PM EDT
Nautical Twilight 5:33 AM EDT 9:42 PM EDT
Astronomical Twilight 4:57 AM EDT 10:18 PM EDT
Moon 11:48 PM EDT (6/16) 10:24 AM EDT (6/16)
Length of Visible Light 15h 01m
Length of Day
14h 06m
Waning Gibbous, 83% of the Moon is Illuminated
Jun 16
Waning Gibbous
Jun 19
Last Quarter
Jun 27
New
Jul 5
First Quarter
Jul 12
Full

Hourly Weather History & Observations

Time (EDT) Temp. Heat Index Dew Point Humidity Pressure Visibility Wind Dir Wind Speed Gust Speed Precip Events Conditions
12:53 AM 71.1 °F - 66.9 °F 87% 30.14 in 10.0 mi Calm Calm - N/A   Clear
1:53 AM 70.0 °F - 66.0 °F 87% 30.12 in 10.0 mi West 3.5 mph - N/A   Clear
2:53 AM 72.0 °F - 68.0 °F 87% 30.12 in 10.0 mi Calm Calm - N/A   Clear
3:53 AM 72.0 °F - 68.0 °F 87% 30.12 in 10.0 mi Calm Calm - N/A   Clear
4:53 AM 71.1 °F - 66.9 °F 87% 30.11 in 10.0 mi Calm Calm - N/A   Clear
5:53 AM 69.1 °F - 66.0 °F 90% 30.12 in 10.0 mi Calm Calm - N/A   Scattered Clouds
6:53 AM 70.0 °F - 66.0 °F 87% 30.16 in 10.0 mi Calm Calm - N/A Fog Patches of Fog
7:53 AM 72.0 °F - 68.0 °F 87% 30.16 in 10.0 mi Calm Calm - N/A Fog Patches of Fog
8:53 AM 79.0 °F - 71.1 °F 77% 30.19 in 10.0 mi NNW 3.5 mph - N/A   Partly Cloudy
9:53 AM 82.9 °F 87.5 °F 71.1 °F 67% 30.19 in 10.0 mi North 9.2 mph - N/A   Scattered Clouds
10:53 AM 86.0 °F 90.7 °F 70.0 °F 59% 30.18 in 10.0 mi North 4.6 mph - N/A   Partly Cloudy
11:53 AM 89.1 °F 93.7 °F 69.1 °F 52% 30.18 in 10.0 mi East 3.5 mph - N/A   Scattered Clouds
12:53 PM 91.0 °F 94.3 °F 66.9 °F 45% 30.16 in 10.0 mi Calm Calm - N/A   Scattered Clouds
1:53 PM 91.9 °F 93.3 °F 64.0 °F 39% 30.14 in 10.0 mi Variable 3.5 mph - N/A   Mostly Cloudy
2:53 PM 95.0 °F 97.4 °F 64.9 °F 37% 30.12 in 10.0 mi ESE 6.9 mph - N/A   Mostly Cloudy
3:53 PM 93.0 °F 94.6 °F 64.0 °F 38% 30.09 in 10.0 mi North 5.8 mph - N/A   Mostly Cloudy
4:53 PM 91.9 °F 94.5 °F 66.0 °F 42% 30.08 in 10.0 mi NNE 3.5 mph - N/A   Mostly Cloudy
5:18 PM 91.4 °F 94.0 °F 66.2 °F 43% 30.09 in 10.0 mi West 9.2 mph - N/A Thunderstorm Thunderstorm
5:53 PM 84.9 °F 91.4 °F 73.0 °F 67% 30.08 in 10.0 mi WSW 5.8 mph - 0.05 in Rain , Thunderstorm Light Thunderstorms and Rain
5:58 PM 84.2 °F 89.6 °F 71.6 °F 66% 30.09 in 0.5 mi North 23.0 mph 41.4 mph 0.03 in Rain , Thunderstorm Heavy Thunderstorms and Rain
6:16 PM 77.0 °F - 64.4 °F 65% 30.08 in 0.8 mi North 17.3 mph 31.1 mph 0.32 in Rain , Thunderstorm Heavy Thunderstorms and Rain
6:38 PM 84.2 °F 85.6 °F 64.4 °F 51% 30.06 in 10.0 mi WSW 3.5 mph 16.1 mph 0.62 in Rain Rain
6:53 PM 79.0 °F - 72.0 °F 79% 30.06 in 10.0 mi North 4.6 mph - 0.62 in   Mostly Cloudy
7:00 PM 80.6 °F 84.6 °F 71.6 °F 74% 30.07 in 10.0 mi North 4.6 mph - N/A Thunderstorm Thunderstorm
7:42 PM 82.4 °F 86.3 °F 69.8 °F 66% 30.11 in 10.0 mi ESE 4.6 mph - N/A   Mostly Cloudy
7:53 PM 82.9 °F 87.0 °F 70.0 °F 65% 30.11 in 10.0 mi Calm Calm - N/A   Mostly Cloudy
8:53 PM 80.1 °F 84.2 °F 73.0 °F 79% 30.11 in 10.0 mi Calm Calm - N/A   Mostly Cloudy
9:53 PM 78.1 °F - 72.0 °F 81% 30.10 in 10.0 mi West 3.5 mph - N/A   Mostly Cloudy
10:53 PM 77.0 °F - 72.0 °F 84% 30.13 in 10.0 mi Calm Calm - N/A   Mostly Cloudy
11:53 PM 75.9 °F - 71.1 °F 85% 30.14 in 9.0 mi Calm Calm - N/A   Clear